• In Hungary
  • List of Countries
  • For 7 days
  • Water Temperature
  • Satellite Maps
  • Weather Map
  • News
  • Weather Widgets
  • user-avatar
    Login

    Hourly Weather Ambon

    Today, 16 August, Wednesday

    Time Temperature Precipitation Wind Pressure Humidity
    00:00 +26°C° 0.1 mm 4 mps 743 mmHg 98%
    01:00 +26°C° 0.1 mm 4 mps 743 mmHg 98%
    02:00 +26°C° 0.1 mm 4 mps 743 mmHg 98%
    03:00 +26°C° 0 mm 4 mps 743 mmHg 98%
    04:00 +26°C° 0.1 mm 4 mps 743 mmHg 98%
    05:00 +26°C° 0.1 mm 4 mps 743 mmHg 98%
    06:00 +26°C° 0.1 mm 4 mps 743 mmHg 98%
    07:00 +26°C° 0.1 mm 4 mps 743 mmHg 97%
    08:00 +26°C° 0.1 mm 4 mps 743 mmHg 97%
    09:00 +27°C° 0 mm 3 mps 744 mmHg 97%
    10:00 +28°C° 0.2 mm 4 mps 743 mmHg 94%
    11:00 +28°C° 0.2 mm 4 mps 743 mmHg 91%
    12:00 +29°C° 0.2 mm 4 mps 743 mmHg 88%
    13:00 +29°C° 0.4 mm 4 mps 743 mmHg 90%
    14:00 +28°C° 0.4 mm 5 mps 742 mmHg 93%
    15:00 +29°C° 0 mm 5 mps 742 mmHg 92%
    16:00 +28°C° 0.7 mm 5 mps 742 mmHg 93%
    17:00 +28°C° 0.7 mm 5 mps 742 mmHg 94%
    18:00 +27°C° 0.7 mm 4 mps 742 mmHg 96%
    19:00 +27°C° 0.2 mm 4 mps 742 mmHg 97%
    20:00 +27°C° 0.2 mm 4 mps 742 mmHg 98%
    21:00 +26°C° 0.2 mm 4 mps 743 mmHg 99%
    22:00 +26°C° 0.1 mm 4 mps 743 mmHg 99%
    23:00 +26°C° 0.1 mm 4 mps 743 mmHg 99%

    Tomorrow, 17 August, Thursday

    Time Temperature Precipitation Wind Pressure Humidity
    00:00 +26°C° 0.1 mm 4 mps 743 mmHg 99%
    01:00 +26°C° 0.3 mm 4 mps 743 mmHg 99%
    02:00 +26°C° 0.3 mm 4 mps 743 mmHg 98%
    03:00 +26°C° 0.3 mm 4 mps 742 mmHg 98%
    04:00 +26°C° 0.4 mm 4 mps 742 mmHg 98%
    05:00 +26°C° 0.4 mm 4 mps 742 mmHg 98%
    06:00 +26°C° 0.4 mm 4 mps 742 mmHg 98%
    07:00 +26°C° 0.7 mm 4 mps 743 mmHg 97%
    08:00 +26°C° 0.7 mm 4 mps 743 mmHg 96%
    09:00 +26°C° 0.7 mm 4 mps 743 mmHg 95%
    10:00 +27°C° 0.6 mm 3 mps 743 mmHg 95%
    11:00 +27°C° 0.6 mm 3 mps 743 mmHg 94%
    12:00 +27°C° 0.6 mm 3 mps 743 mmHg 93%
    13:00 +27°C° 0.6 mm 3 mps 743 mmHg 94%
    14:00 +27°C° 0.6 mm 3 mps 742 mmHg 95%
    15:00 +26°C° 0.6 mm 2 mps 742 mmHg 96%
    16:00 +26°C° 0.3 mm 2 mps 742 mmHg 96%
    17:00 +26°C° 0.3 mm 2 mps 742 mmHg 97%
    18:00 +26°C° 0.3 mm 2 mps 742 mmHg 97%
    19:00 +25°C° 0.2 mm 2 mps 743 mmHg 97%
    20:00 +25°C° 0.2 mm 2 mps 743 mmHg 97%
    21:00 +25°C° 0.2 mm 3 mps 743 mmHg 97%
    22:00 +25°C° 0.3 mm 3 mps 744 mmHg 97%
    23:00 +25°C° 0.3 mm 2 mps 744 mmHg 97%

    Day after tomorrow, 18 August, Friday

    Time Temperature Precipitation Wind Pressure Humidity
    00:00 +25°C° 0.3 mm 2 mps 744 mmHg 97%
    01:00 +25°C° 0.7 mm 2 mps 743 mmHg 97%
    02:00 +25°C° 0.7 mm 2 mps 743 mmHg 97%
    03:00 +25°C° 0.7 mm 2 mps 743 mmHg 97%
    04:00 +25°C° 1.1 mm 2 mps 743 mmHg 97%
    05:00 +25°C° 1.1 mm 2 mps 743 mmHg 97%
    06:00 +25°C° 1.1 mm 2 mps 743 mmHg 97%
    07:00 +26°C° 0.5 mm 2 mps 743 mmHg 96%
    08:00 +27°C° 0.5 mm 1 mps 744 mmHg 94%
    09:00 +27°C° 0.5 mm 1 mps 744 mmHg 93%
    10:00 +28°C° 0 mm 2 mps 744 mmHg 90%
    11:00 +29°C° 0 mm 2 mps 744 mmHg 88%
    12:00 +30°C° 0 mm 3 mps 744 mmHg 85%
    13:00 +29°C° 0.6 mm 3 mps 743 mmHg 88%
    14:00 +29°C° 0.6 mm 3 mps 743 mmHg 91%
    15:00 +28°C° 0.6 mm 4 mps 742 mmHg 94%
    16:00 +28°C° 0.8 mm 4 mps 743 mmHg 95%
    17:00 +27°C° 0.8 mm 4 mps 743 mmHg 96%
    18:00 +27°C° 0.8 mm 4 mps 743 mmHg 98%
    19:00 +27°C° 0.6 mm 4 mps 743 mmHg 98%
    20:00 +26°C° 0.6 mm 4 mps 744 mmHg 98%
    21:00 +26°C° 0.6 mm 4 mps 745 mmHg 99%
    22:00 +26°C° 0.2 mm 4 mps 745 mmHg 99%
    23:00 +26°C° 0.2 mm 4 mps 745 mmHg 99%

    19 August, Saturday

    Time Temperature Precipitation Wind Pressure Humidity
    00:00 +25°C° 0.2 mm 4 mps 745 mmHg 99%
    01:00 +25°C° 0.7 mm 4 mps 744 mmHg 99%
    02:00 +25°C° 0.7 mm 4 mps 744 mmHg 98%
    03:00 +25°C° 0.7 mm 4 mps 744 mmHg 98%
    04:00 +25°C° 1 mm 4 mps 744 mmHg 98%
    05:00 +25°C° 1 mm 4 mps 744 mmHg 98%
    06:00 +25°C° 1 mm 4 mps 744 mmHg 97%
    07:00 +26°C° 0.2 mm 4 mps 744 mmHg 95%
    08:00 +27°C° 0.2 mm 4 mps 745 mmHg 93%
    09:00 +28°C° 0.2 mm 4 mps 745 mmHg 91%
    10:00 +28°C° 0.7 mm 4 mps 745 mmHg 90%
    11:00 +28°C° 0.7 mm 4 mps 745 mmHg 90%
    12:00 +28°C° 0.7 mm 4 mps 745 mmHg 90%
    13:00 +28°C° 1.2 mm 4 mps 744 mmHg 92%
    14:00 +28°C° 1.2 mm 4 mps 743 mmHg 94%
    15:00 +27°C° 1.2 mm 4 mps 743 mmHg 96%
    16:00 +27°C° 1.2 mm 5 mps 743 mmHg 97%
    17:00 +27°C° 1.2 mm 5 mps 743 mmHg 98%
    18:00 +26°C° 1.2 mm 5 mps 743 mmHg 98%
    19:00 +26°C° 1.2 mm 5 mps 744 mmHg 98%
    20:00 +26°C° 1.2 mm 5 mps 744 mmHg 98%
    21:00 +26°C° 1.2 mm 5 mps 745 mmHg 98%
    22:00 +26°C° 0.7 mm 5 mps 745 mmHg 99%
    23:00 +26°C° 0.7 mm 5 mps 745 mmHg 99%

    20 August, Sunday

    Time Temperature Precipitation Wind Pressure Humidity
    00:00 +26°C° 0.7 mm 5 mps 745 mmHg 99%
    01:00 +26°C° 1.7 mm 5 mps 744 mmHg 98%
    02:00 +26°C° 1.7 mm 5 mps 744 mmHg 98%
    03:00 +26°C° 1.7 mm 5 mps 743 mmHg 98%
    04:00 +26°C° 4.9 mm 5 mps 743 mmHg 98%
    05:00 +26°C° 4.9 mm 5 mps 744 mmHg 98%
    06:00 +26°C° 4.9 mm 5 mps 744 mmHg 98%
    07:00 +26°C° 9.1 mm 5 mps 744 mmHg 97%
    08:00 +27°C° 9.1 mm 5 mps 745 mmHg 96%
    09:00 +27°C° 9.1 mm 5 mps 745 mmHg 95%
    10:00 +28°C° 8.8 mm 5 mps 745 mmHg 93%
    11:00 +28°C° 8.8 mm 5 mps 745 mmHg 91%
    12:00 +29°C° 8.8 mm 5 mps 744 mmHg 89%
    13:00 +28°C° 9 mm 5 mps 744 mmHg 92%
    14:00 +28°C° 9 mm 5 mps 743 mmHg 94%
    15:00 +27°C° 9 mm 5 mps 743 mmHg 97%
    16:00 +27°C° 9.3 mm 5 mps 743 mmHg 97%
    17:00 +26°C° 9.3 mm 5 mps 743 mmHg 98%
    18:00 +26°C° 9.3 mm 5 mps 743 mmHg 99%
    19:00 +26°C° 11.3 mm 5 mps 743 mmHg 99%
    20:00 +26°C° 11.3 mm 5 mps 744 mmHg 99%
    21:00 +26°C° 11.3 mm 5 mps 744 mmHg 99%
    22:00 +26°C° 12 mm 5 mps 744 mmHg 99%
    23:00 +26°C° 12 mm 5 mps 744 mmHg 99%

    21 August, Monday

    Time Temperature Precipitation Wind Pressure Humidity
    00:00 +26°C° 12 mm 5 mps 744 mmHg 99%
    01:00 +26°C° 10 mm 5 mps 743 mmHg 99%
    02:00 +26°C° 10 mm 5 mps 743 mmHg 99%
    03:00 +26°C° 10 mm 5 mps 743 mmHg 99%
    04:00 +26°C° 7.5 mm 5 mps 743 mmHg 99%
    05:00 +26°C° 7.5 mm 4 mps 743 mmHg 99%
    06:00 +26°C° 7.5 mm 4 mps 743 mmHg 99%
    07:00 +26°C° 6 mm 4 mps 744 mmHg 98%
    08:00 +26°C° 6 mm 4 mps 744 mmHg 97%
    09:00 +27°C° 6 mm 4 mps 744 mmHg 97%
    10:00 +27°C° 3.3 mm 4 mps 744 mmHg 96%
    11:00 +27°C° 3.3 mm 4 mps 744 mmHg 96%
    12:00 +27°C° 3.3 mm 4 mps 744 mmHg 95%
    13:00 +27°C° 0.6 mm 4 mps 743 mmHg 94%
    14:00 +28°C° 0.6 mm 4 mps 743 mmHg 92%
    15:00 +28°C° 0.6 mm 4 mps 742 mmHg 91%
    16:00 +28°C° 0 mm 3 mps 742 mmHg 91%
    17:00 +28°C° 0 mm 3 mps 743 mmHg 90%
    18:00 +27°C° 0 mm 3 mps 743 mmHg 90%
    19:00 +27°C° 0 mm 3 mps 743 mmHg 93%
    20:00 +26°C° 0 mm 3 mps 744 mmHg 95%
    21:00 +25°C° 0 mm 3 mps 744 mmHg 98%
    22:00 +25°C° 0 mm 3 mps 744 mmHg 98%
    23:00 +25°C° 0 mm 3 mps 744 mmHg 97%
    Show more